This is the latest recevied weather packets stored in our database for station/object KC2GYU. If no packets are shown the sender has not sent any weather packets the latest 10 day(s).
| Time | Temp. | Humidity | Pressure | Rain* | Wind** | Luminosity | Snow |
|---|---|---|---|---|---|---|---|
| 1777999388 | 22.78° C | 70% | 1012.9 hPa | 0 mm | - | 692 W/m² | - |
| 1777999086 | 22.78° C | 70% | 1013.1 hPa | 0 mm | - | 370 W/m² | - |
| 1777998784 | 22.78° C | 70% | 1013 hPa | 0 mm | - | 667 W/m² | - |
| 1777998482 | 22.78° C | 70% | 1013.2 hPa | 0 mm | - | 676 W/m² | - |
| 1777998178 | 22.78° C | 71% | 1013.2 hPa | 0 mm | - | 685 W/m² | - |
| 1777997875 | 22.22° C | 71% | 1013.2 hPa | 0 mm | - | 684 W/m² | - |
| 1777997573 | 22.22° C | 72% | 1013.1 hPa | 0 mm | - | 677 W/m² | - |
| 1777997270 | 22.22° C | 72% | 1013.4 hPa | 0 mm | - | 666 W/m² | - |
| 1777996968 | 22.22° C | 71% | 1013.4 hPa | 0 mm | - | 351 W/m² | - |
| 1777996664 | 22.22° C | 70% | 1013.6 hPa | 0 mm | - | 661 W/m² | - |
| 1777996360 | 22.78° C | 71% | 1013.3 hPa | 0 mm | - | 620 W/m² | - |
| 1777996057 | 22.78° C | 71% | 1013.4 hPa | 0 mm | - | 573 W/m² | - |
| 1777995753 | 21.67° C | 72% | 1013.4 hPa | 0 mm | - | 557 W/m² | - |
| 1777995449 | 22.22° C | 72% | 1013.8 hPa | 0 mm | - | 569 W/m² | - |
| 1777995147 | 22.22° C | 71% | 1013.7 hPa | 0 mm | - | 565 W/m² | - |
| 1777994844 | 22.22° C | 72% | 1013.6 hPa | 0 mm | - | 590 W/m² | - |
| 1777994540 | 21.67° C | 72% | 1013.3 hPa | 0 mm | - | 635 W/m² | - |
| 1777994235 | 21.67° C | 72% | 1013.4 hPa | 0 mm | - | 625 W/m² | - |
| 1777993932 | 21.67° C | 73% | 1013.5 hPa | 0 mm | - | 611 W/m² | - |
| 1777993628 | 21.11° C | 73% | 1013.6 hPa | 0 mm | - | 597 W/m² | - |
| 1777993326 | 21.67° C | 71% | 1013.3 hPa | 0 mm | - | 595 W/m² | - |
| 1777993026 | 21.67° C | 73% | 1013.4 hPa | 0 mm | - | 606 W/m² | - |
| 1777992725 | 21.67° C | 73% | 1013.7 hPa | 0 mm | - | 598 W/m² | - |
| 1777992422 | 21.67° C | 73% | 1013.9 hPa | 0 mm | - | 579 W/m² | - |
| 1777992120 | 22.22° C | 72% | 1013.6 hPa | 0 mm | - | 560 W/m² | - |
* Rain latest hour (hover to see other rain measurements)
** Current wind speed in m/s (hover to see current wind gust speed)